| time (UTC) | temp C | wind direction | speed KPH | gust KPH | rain 1hr cm | rain 24hr cm | rain mn cm | humidity % | barometer mb |
| 20260507231503 | 15 | 297 | 3.2 | 14.5 | 0.00 | 0.51 | 0.00 | 44 | 961.7 |
| 20260507231004 | 15 | 278 | 4.8 | 12.9 | 0.00 | 0.51 | 0.00 | 44 | 961.7 |
| 20260507230504 | 15 | 281 | 4.8 | 11.3 | 0.00 | 0.51 | 0.00 | 44 | 961.7 |
| 20260507230005 | 15 | 290 | 6.4 | 11.3 | 0.00 | 0.51 | 0.00 | 42 | 961.6 |
| 20260507225004 | 15 | 318 | 8.0 | 14.5 | 0.00 | 0.51 | 0.00 | 42 | 961.4 |
| 20260507224504 | 15 | 292 | 8.0 | 12.9 | 0.00 | 0.51 | 0.00 | 43 | 961.5 |
| 20260507224004 | 15 | 312 | 6.4 | 12.9 | 0.00 | 0.51 | 0.00 | 43 | 961.5 |
| 20260507223005 | 16 | 294 | 6.4 | 12.9 | 0.00 | 0.51 | 0.00 | 42 | 961.4 |
| 20260507222504 | 16 | 280 | 8.0 | 14.5 | 0.00 | 0.51 | 0.00 | 41 | 961.1 |
| 20260507222004 | 15 | 311 | 4.8 | 16.1 | 0.00 | 0.51 | 0.00 | 43 | 961.3 |
| 20260507221004 | 16 | 301 | 4.8 | 14.5 | 0.00 | 0.51 | 0.00 | 41 | 961.2 |
| 20260507220504 | 16 | 284 | 3.2 | 9.7 | 0.00 | 0.51 | 0.00 | 42 | 961.1 |
| 20260507220004 | 16 | 297 | 4.8 | 11.3 | 0.00 | 0.51 | 0.00 | 40 | 961.0 |
| 20260507215503 | 16 | 271 | 4.8 | 11.3 | 0.00 | 0.51 | 0.00 | 44 | 961.0 |
| 20260507215004 | 16 | 308 | 4.8 | 11.3 | 0.00 | 0.51 | 0.00 | 43 | 961.2 |
| 20260507214504 | 16 | 296 | 4.8 | 9.7 | 0.00 | 0.51 | 0.00 | 44 | 961.2 |
| 20260507214004 | 16 | 314 | 3.2 | 12.9 | 0.00 | 0.51 | 0.00 | 42 | 961.1 |
| 20260507213504 | 16 | 278 | 8.0 | 16.1 | 0.00 | 0.51 | 0.00 | 40 | 960.9 |
| 20260507213004 | 16 | 286 | 3.2 | 12.9 | 0.00 | 0.51 | 0.00 | 42 | 961.0 |
| 20260507212504 | 17 | 302 | 4.8 | 16.1 | 0.00 | 0.51 | 0.00 | 43 | 961.2 |
| 20260507212004 | 17 | 299 | 4.8 | 16.1 | 0.00 | 0.51 | 0.00 | 42 | 961.0 |
| 20260507211504 | 17 | 307 | 4.8 | 11.3 | 0.00 | 0.51 | 0.00 | 40 | 960.9 |
| 20260507211004 | 17 | 321 | 4.8 | 11.3 | 0.00 | 0.51 | 0.00 | 40 | 960.6 |
| 20260507210503 | 17 | 315 | 4.8 | 14.5 | 0.00 | 0.51 | 0.00 | 39 | 960.7 |
| 20260507210004 | 17 | 295 | 8.0 | 12.9 | 0.00 | 0.51 | 0.00 | 40 | 960.6 |
| 20260507205003 | 17 | 281 | 4.8 | 11.3 | 0.00 | 0.51 | 0.00 | 40 | 960.7 |
| 20260507204504 | 17 | 293 | 4.8 | 12.9 | 0.00 | 0.51 | 0.00 | 40 | 960.8 |
| 20260507204004 | 17 | 286 | 4.8 | 11.3 | 0.00 | 0.51 | 0.00 | 39 | 960.9 |
| 20260507203504 | 17 | 289 | 8.0 | 12.9 | 0.00 | 0.51 | 0.00 | 40 | 960.7 |
| 20260507203004 | 17 | 287 | 8.0 | 12.9 | 0.00 | 0.51 | 0.00 | 40 | 960.6 |
| 20260507202503 | 16 | 302 | 8.0 | 14.5 | 0.00 | 0.51 | 0.00 | 41 | 960.8 |
| 20260507202004 | 17 | 292 | 4.8 | 11.3 | 0.00 | 0.51 | 0.00 | 39 | 961.0 |
| 20260507201004 | 18 | 299 | 8.0 | 12.9 | 0.00 | 0.51 | 0.00 | 38 | 960.9 |
| 20260507195504 | 17 | 274 | 4.8 | 12.9 | 0.00 | 0.51 | 0.00 | 42 | 961.2 |
| 20260507195004 | 17 | 344 | 6.4 | 12.9 | 0.00 | 0.51 | 0.00 | 40 | 961.1 |
| 20260507194004 | 17 | 287 | 8.0 | 12.9 | 0.00 | 0.51 | 0.00 | 41 | 961.0 |
| 20260507193004 | 17 | 292 | 4.8 | 12.9 | 0.00 | 0.51 | 0.00 | 41 | 961.0 |
| 20260507192004 | 17 | 306 | 4.8 | 11.3 | 0.00 | 0.51 | 0.00 | 39 | 961.0 |
| 20260507191504 | 17 | 274 | 6.4 | 19.3 | 0.00 | 0.51 | 0.00 | 38 | 961.0 |
| 20260507185504 | 17 | 308 | 4.8 | 9.7 | 0.00 | 0.51 | 0.00 | 40 | 961.1 |
| 20260507184504 | 17 | 291 | 6.4 | 12.9 | 0.00 | 0.51 | 0.00 | 39 | 961.4 |
| 20260507184004 | 17 | 301 | 6.4 | 12.9 | 0.00 | 0.51 | 0.00 | 39 | 961.2 |
| 20260507183504 | 17 | 281 | 4.8 | 11.3 | 0.00 | 0.51 | 0.00 | 40 | 961.3 |
| 20260507183004 | 17 | 266 | 3.2 | 11.3 | 0.00 | 0.51 | 0.00 | 40 | 961.2 |
| 20260507182503 | 17 | 295 | 4.8 | 11.3 | 0.00 | 0.51 | 0.00 | 41 | 961.2 |
| 20260507182004 | 17 | 328 | 3.2 | 8.0 | 0.00 | 0.51 | 0.00 | 40 | 961.2 |
| 20260507181503 | 17 | 299 | 6.4 | 12.9 | 0.00 | 0.51 | 0.00 | 39 | 961.4 |
| 20260507181004 | 17 | 291 | 4.8 | 11.3 | 0.00 | 0.51 | 0.00 | 42 | 961.3 |
| 20260507180504 | 16 | 278 | 4.8 | 12.9 | 0.00 | 0.51 | 0.00 | 40 | 961.3 |
| 20260507180004 | 16 | 297 | 8.0 | 14.5 | 0.00 | 0.51 | 0.00 | 39 | 961.4 |
| 20260507175504 | 17 | 265 | 4.8 | 12.9 | 0.00 | 0.51 | 0.00 | 40 | 961.5 |
| 20260507175003 | 16 | 278 | 4.8 | 12.9 | 0.00 | 0.51 | 0.00 | 41 | 961.5 |
| 20260507174504 | 16 | 297 | 3.2 | 8.0 | 0.00 | 0.51 | 0.00 | 42 | 961.6 |
| 20260507174004 | 15 | 4 | 8.0 | 14.5 | 0.00 | 0.51 | 0.00 | 43 | 961.7 |
| 20260507173504 | 16 | 291 | 8.0 | 14.5 | 0.00 | 0.51 | 0.00 | 41 | 961.8 |
| 20260507172504 | 16 | 300 | 6.4 | 12.9 | 0.00 | 0.51 | 0.00 | 42 | 961.9 |
| 20260507172004 | 16 | 295 | 4.8 | 11.3 | 0.00 | 0.51 | 0.00 | 43 | 961.9 |
| 20260507171504 | 15 | 293 | 4.8 | 9.7 | 0.00 | 0.51 | 0.00 | 42 | 961.9 |
| 20260507171003 | 15 | 331 | 4.8 | 9.7 | 0.00 | 0.51 | 0.00 | 42 | 962.0 |
| 20260507170504 | 15 | 340 | 4.8 | 12.9 | 0.00 | 0.51 | 0.00 | 42 | 962.2 |
| 20260507170003 | 15 | 278 | 4.8 | 16.1 | 0.00 | 0.51 | 0.00 | 43 | 962.3 |
| 20260507165504 | 15 | 317 | 4.8 | 9.7 | 0.00 | 0.51 | 0.00 | 42 | 962.2 |
| 20260507164504 | 15 | 2 | 3.2 | 9.7 | 0.00 | 0.51 | 0.00 | 42 | 962.3 |
| 20260507164004 | 15 | 43 | 3.2 | 9.7 | 0.00 | 0.51 | 0.00 | 43 | 962.4 |
| 20260507163004 | 15 | 345 | 4.8 | 8.0 | 0.00 | 0.51 | 0.00 | 44 | 962.7 |
| 20260507161503 | 15 | 335 | 4.8 | 9.7 | 0.00 | 0.51 | 0.00 | 44 | 962.7 |
| 20260507161004 | 14 | 286 | 3.2 | 9.7 | 0.00 | 0.51 | 0.00 | 46 | 962.6 |
| 20260507155503 | 14 | 304 | 3.2 | 9.7 | 0.00 | 0.51 | 0.00 | 50 | 962.8 |
| 20260507155004 | 14 | 248 | 4.8 | 11.3 | 0.00 | 0.51 | 0.00 | 45 | 962.9 |
| 20260507154504 | 13 | 263 | 3.2 | 11.3 | 0.00 | 0.51 | 0.00 | 46 | 963.0 |
| 20260507154004 | 13 | 266 | 3.2 | 9.7 | 0.00 | 0.51 | 0.00 | 49 | 963.0 |
| 20260507153504 | 13 | 257 | 4.8 | 8.0 | 0.00 | 0.51 | 0.00 | 48 | 963.0 |
| 20260507153004 | 13 | 273 | 3.2 | 11.3 | 0.00 | 0.51 | 0.00 | 47 | 963.0 |
| 20260507152004 | 13 | 257 | 3.2 | 4.8 | 0.00 | 0.51 | 0.00 | 49 | 963.0 |
| 20260507151005 | 12 | 242 | 3.2 | 8.0 | 0.00 | 0.51 | 0.00 | 50 | 963.0 |
| 20260507150004 | 12 | 34 | 4.8 | 9.7 | 0.00 | 0.51 | 0.00 | 47 | 963.1 |
| 20260507145505 | 12 | 270 | 3.2 | 8.0 | 0.00 | 0.51 | 0.00 | 49 | 963.0 |
| 20260507145004 | 12 | 12 | 3.2 | 9.7 | 0.00 | 0.51 | 0.00 | 50 | 963.0 |
| 20260507144504 | 12 | 269 | 4.8 | 11.3 | 0.00 | 0.51 | 0.00 | 47 | 963.2 |
| 20260507144004 | 12 | 279 | 4.8 | 9.7 | 0.00 | 0.51 | 0.00 | 47 | 963.8 |
| 20260507143004 | 12 | 283 | 3.2 | 4.8 | 0.00 | 0.51 | 0.00 | 51 | 963.8 |
| 20260507142504 | 12 | 24 | 4.8 | 8.0 | 0.00 | 0.51 | 0.00 | 50 | 963.9 |
| 20260507142004 | 12 | 314 | 4.8 | 9.7 | 0.00 | 0.51 | 0.00 | 48 | 963.9 |
| 20260507141504 | 11 | 322 | 3.2 | 8.0 | 0.00 | 0.51 | 0.00 | 51 | 964.0 |
| 20260507141004 | 11 | 316 | 6.4 | 16.1 | 0.00 | 0.51 | 0.00 | 54 | 964.1 |
| 20260507140005 | 11 | 261 | 4.8 | 9.7 | 0.00 | 0.51 | 0.00 | 55 | 964.4 |
| 20260507135504 | 10 | 39 | 1.6 | 8.0 | 0.00 | 0.51 | 0.00 | 54 | 964.5 |
| 20260507135005 | 10 | 43 | 4.8 | 9.7 | 0.00 | 0.53 | 0.00 | 54 | 964.6 |
| 20260507134503 | 10 | 243 | 1.6 | 4.8 | 0.00 | 0.53 | 0.00 | 56 | 964.7 |
| 20260507134004 | 10 | 29 | 3.2 | 9.7 | 0.00 | 0.53 | 0.00 | 56 | 964.7 |
| 20260507133504 | 10 | 28 | 3.2 | 9.7 | 0.00 | 0.56 | 0.00 | 61 | 964.8 |
| 20260507133004 | 10 | 330 | 1.6 | 3.2 | 0.00 | 0.56 | 0.00 | 62 | 964.8 |
| 20260507132504 | 10 | 44 | 3.2 | 9.7 | 0.00 | 0.56 | 0.00 | 61 | 964.9 |
| 20260507132004 | 10 | 309 | 3.2 | 4.8 | 0.00 | 0.58 | 0.00 | 58 | 964.9 |
| 20260507131504 | 10 | 347 | 1.6 | 4.8 | 0.00 | 0.58 | 0.00 | 58 | 964.8 |
| 20260507131004 | 10 | 76 | 0.0 | 4.8 | 0.00 | 0.58 | 0.00 | 58 | 964.8 |
| 20260507130504 | 10 | 311 | 3.2 | 4.8 | 0.00 | 0.58 | 0.00 | 58 | 964.9 |
| 20260507130004 | 10 | 304 | 0.0 | 3.2 | 0.00 | 0.61 | 0.00 | 57 | 965.0 |
| 20260507125503 | 10 | 293 | 1.6 | 4.8 | 0.00 | 0.64 | 0.00 | 58 | 965.0 |
| 20260507125004 | 9 | 45 | 1.6 | 3.2 | 0.00 | 0.66 | 0.00 | 61 | 965.0 |
| 20260507124504 | 9 | 282 | 1.6 | 3.2 | 0.00 | 0.69 | 0.00 | 60 | 965.0 |
| 20260507124004 | 9 | 322 | 1.6 | 3.2 | 0.00 | 0.69 | 0.00 | 65 | 964.9 |
| 20260507123504 | 9 | 308 | 0.0 | 3.2 | 0.00 | 0.69 | 0.00 | 61 | 964.9 |
| 20260507123004 | 9 | 326 | 3.2 | 11.3 | 0.00 | 0.71 | 0.00 | 61 | 964.9 |
| 20260507122504 | 9 | 18 | 3.2 | 11.3 | 0.00 | 0.71 | 0.00 | 60 | 964.8 |
| 20260507122004 | 9 | 19 | 1.6 | 3.2 | 0.00 | 0.74 | 0.00 | 61 | 964.8 |
| 20260507121505 | 9 | 295 | 0.0 | 1.6 | 0.00 | 0.74 | 0.00 | 64 | 964.8 |
| 20260507121004 | 8 | 317 | 0.0 | 1.6 | 0.00 | 0.74 | 0.00 | 62 | 964.8 |
| 20260507120005 | 8 | 334 | 0.0 | 3.2 | 0.00 | 0.76 | 0.00 | 64 | 964.7 |
| 20260507115505 | 8 | 44 | 1.6 | 4.8 | 0.00 | 0.76 | 0.00 | 63 | 964.7 |
| 20260507115004 | 8 | 46 | 1.6 | 4.8 | 0.00 | 0.79 | 0.00 | 64 | 964.7 |
| 20260507114504 | 8 | 38 | 1.6 | 4.8 | 0.00 | 0.81 | 0.00 | 68 | 964.7 |
| 20260507114003 | 8 | 299 | 1.6 | 3.2 | 0.00 | 0.84 | 0.00 | 67 | 964.8 |
| 20260507113504 | 8 | 300 | 3.2 | 8.0 | 0.00 | 0.86 | 0.00 | 67 | 964.8 |
| 20260507113005 | 8 | 13 | 1.6 | 4.8 | 0.00 | 0.94 | 0.00 | 64 | 964.8 |
| 20260507112503 | 8 | 16 | 3.2 | 4.8 | 0.00 | 0.94 | 0.00 | 63 | 964.7 |
| 20260507112004 | 8 | 305 | 3.2 | 4.8 | 0.00 | 0.97 | 0.00 | 64 | 964.6 |
| 20260507111506 | 8 | 333 | 3.2 | 11.3 | 0.00 | 0.99 | 0.00 | 66 | 964.5 |
| 20260507111004 | 8 | 49 | 4.8 | 11.3 | 0.00 | 0.99 | 0.00 | 64 | 964.5 |
| 20260507110005 | 8 | 299 | 3.2 | 4.8 | 0.00 | 1.02 | 0.00 | 67 | 964.4 |
| 20260507105504 | 8 | 320 | 3.2 | 4.8 | 0.00 | 1.02 | 0.00 | 68 | 964.4 |
| 20260507105004 | 8 | 35 | 3.2 | 4.8 | 0.00 | 1.02 | 0.00 | 65 | 964.3 |
| 20260507104504 | 8 | 304 | 1.6 | 3.2 | 0.00 | 1.04 | 0.00 | 67 | 964.3 |
| 20260507104004 | 8 | 292 | 1.6 | 3.2 | 0.00 | 1.07 | 0.00 | 68 | 964.3 |
| 20260507103504 | 8 | 297 | 3.2 | 3.2 | 0.00 | 1.07 | 0.00 | 66 | 964.2 |
| 20260507103004 | 8 | 343 | 1.6 | 3.2 | 0.00 | 1.09 | 0.00 | 66 | 964.1 |
| 20260507102006 | 8 | 216 | 1.6 | 4.8 | 0.00 | 1.09 | 0.00 | 65 | 964.0 |
| 20260507101504 | 8 | 314 | 3.2 | 4.8 | 0.00 | 1.09 | 0.00 | 64 | 963.9 |
| 20260507101004 | 8 | 15 | 0.0 | 3.2 | 0.00 | 1.12 | 0.00 | 67 | 963.9 |
| 20260507100004 | 8 | 267 | 1.6 | 3.2 | 0.00 | 1.12 | 0.00 | 68 | 963.9 |
| 20260507095504 | 8 | 290 | 0.0 | 1.6 | 0.00 | 1.14 | 0.00 | 66 | 964.0 |
| 20260507095004 | 8 | 293 | 1.6 | 4.8 | 0.00 | 1.14 | 0.00 | 67 | 964.1 |
| 20260507094504 | 8 | 354 | 1.6 | 3.2 | 0.00 | 1.14 | 0.00 | 68 | 964.1 |
| 20260507093504 | 8 | 255 | 3.2 | 8.0 | 0.00 | 1.17 | 0.00 | 68 | 964.1 |
| 20260507093004 | 8 | 287 | 4.8 | 8.0 | 0.00 | 1.17 | 0.00 | 66 | 964.0 |
| 20260507092503 | 8 | 357 | 4.8 | 8.0 | 0.00 | 1.17 | 0.00 | 65 | 964.0 |
| 20260507092004 | 8 | 334 | 4.8 | 8.0 | 0.00 | 1.17 | 0.00 | 66 | 963.9 |
| 20260507091504 | 8 | 301 | 3.2 | 4.8 | 0.00 | 1.17 | 0.00 | 66 | 964.0 |
| 20260507091004 | 8 | 271 | 3.2 | 8.0 | 0.00 | 1.17 | 0.00 | 67 | 964.0 |
| 20260507090503 | 8 | 319 | 3.2 | 4.8 | 0.00 | 1.17 | 0.00 | 66 | 964.0 |
| 20260507090005 | 8 | 347 | 3.2 | 4.8 | 0.00 | 1.17 | 0.00 | 67 | 963.9 |
| 20260507085504 | 8 | 330 | 3.2 | 4.8 | 0.00 | 1.17 | 0.00 | 68 | 963.9 |
| 20260507084504 | 8 | 326 | 4.8 | 8.0 | 0.00 | 1.17 | 0.00 | 68 | 963.9 |
| 20260507082504 | 8 | 311 | 1.6 | 4.8 | 0.00 | 1.17 | 0.00 | 72 | 963.8 |
| 20260507082004 | 8 | 317 | 3.2 | 4.8 | 0.00 | 1.17 | 0.00 | 71 | 963.8 |
| 20260507081004 | 8 | 303 | 1.6 | 3.2 | 0.00 | 1.17 | 0.00 | 72 | 963.8 |
| 20260507080504 | 9 | 334 | 1.6 | 4.8 | 0.00 | 1.17 | 0.00 | 67 | 963.7 |
| 20260507080003 | 9 | 322 | 3.2 | 4.8 | 0.00 | 1.17 | 0.00 | 69 | 963.8 |
| 20260507075504 | 9 | 7 | 3.2 | 8.0 | 0.00 | 1.17 | 0.00 | 68 | 963.8 |
| 20260507075004 | 9 | 66 | 3.2 | 8.0 | 0.00 | 1.17 | 0.00 | 70 | 963.8 |
| 20260507074503 | 9 | 298 | 3.2 | 4.8 | 0.00 | 1.17 | 0.00 | 70 | 963.8 |
| 20260507074004 | 9 | 291 | 3.2 | 4.8 | 0.00 | 1.17 | 0.00 | 70 | 963.8 |
| 20260507073504 | 9 | 280 | 3.2 | 4.8 | 0.00 | 1.17 | 0.00 | 70 | 963.7 |
| 20260507073004 | 9 | 298 | 3.2 | 4.8 | 0.00 | 1.17 | 0.00 | 71 | 963.7 |
| 20260507072004 | 9 | 316 | 3.2 | 4.8 | 0.00 | 1.17 | 0.00 | 72 | 963.6 |
| 20260507071504 | 9 | 296 | 3.2 | 4.8 | 0.00 | 1.17 | 0.00 | 75 | 963.7 |
| 20260507070504 | 9 | 286 | 1.6 | 3.2 | 0.00 | 1.17 | 0.00 | 79 | 963.7 |
| 20260507070008 | 9 | 324 | 1.6 | 3.2 | 0.00 | 1.17 | 0.00 | 79 | 963.7 |
| 20260507065504 | 9 | 287 | 3.2 | 3.2 | 0.00 | 1.17 | 0.00 | 77 | 963.8 |
| 20260507065003 | 9 | 294 | 1.6 | 3.2 | 0.00 | 1.17 | 0.00 | 77 | 963.7 |
| 20260507064504 | 9 | 292 | 3.2 | 8.0 | 0.00 | 1.17 | 0.00 | 77 | 963.7 |
| 20260507064004 | 9 | 275 | 3.2 | 4.8 | 0.00 | 1.17 | 0.00 | 80 | 963.8 |
| 20260507063503 | 9 | 290 | 1.6 | 4.8 | 0.00 | 1.17 | 0.00 | 79 | 963.7 |
| 20260507063003 | 9 | 293 | 3.2 | 4.8 | 0.00 | 1.17 | 0.00 | 84 | 963.8 |
| 20260507062504 | 10 | 287 | 3.2 | 4.8 | 0.00 | 1.17 | 0.00 | 86 | 963.7 |
| 20260507062004 | 10 | 313 | 3.2 | 4.8 | 0.00 | 1.17 | 0.00 | 87 | 963.7 |
| 20260507061503 | 10 | 260 | 3.2 | 4.8 | 0.00 | 1.17 | 0.00 | 85 | 963.7 |
| 20260507061004 | 10 | 299 | 3.2 | 3.2 | 0.00 | 1.17 | 0.00 | 88 | 963.8 |
| 20260507060504 | 10 | 276 | 3.2 | 3.2 | 0.00 | 1.17 | 0.00 | 85 | 963.9 |
| 20260507060004 | 10 | 287 | 3.2 | 4.8 | 0.00 | 1.17 | 0.00 | 88 | 963.9 |
| 20260507055504 | 10 | 310 | 3.2 | 8.0 | 0.00 | 1.17 | 0.00 | 88 | 963.9 |
| 20260507055004 | 10 | 286 | 3.2 | 4.8 | 0.00 | 1.17 | 0.00 | 90 | 964.0 |
| 20260507054504 | 10 | 318 | 3.2 | 4.8 | 0.00 | 1.17 | 0.00 | 91 | 963.9 |
| 20260507054004 | 10 | 309 | 1.6 | 3.2 | 0.00 | 1.17 | 0.00 | 89 | 964.0 |
| 20260507053504 | 10 | 289 | 3.2 | 3.2 | 0.00 | 1.17 | 0.00 | 89 | 964.0 |
| 20260507053004 | 10 | 253 | 1.6 | 3.2 | 0.00 | 1.17 | 0.00 | 89 | 964.1 |
| 20260507052504 | 10 | 275 | 1.6 | 3.2 | 0.00 | 1.17 | 0.00 | 89 | 964.0 |
| 20260507052004 | 10 | 301 | 1.6 | 3.2 | 0.00 | 1.17 | 0.00 | 89 | 964.0 |
| 20260507051504 | 10 | 258 | 1.6 | 4.8 | 0.00 | 1.17 | 0.00 | 90 | 964.0 |
| 20260507051004 | 10 | 310 | 1.6 | 3.2 | 0.00 | 1.17 | 0.00 | 90 | 963.9 |
| 20260507050504 | 10 | 281 | 1.6 | 3.2 | 0.00 | 1.17 | 0.00 | 91 | 963.9 |
| 20260507050004 | 10 | 284 | 1.6 | 3.2 | 0.00 | 1.17 | 0.00 | 92 | 963.9 |
| 20260507045504 | 10 | 293 | 1.6 | 3.2 | 0.51 | 1.17 | 0.00 | 91 | 963.8 |
| 20260507045004 | 10 | 300 | 3.2 | 3.2 | 0.51 | 1.17 | 0.00 | 91 | 963.8 |
| 20260507043504 | 10 | 292 | 1.6 | 3.2 | 0.51 | 1.19 | 0.00 | 88 | 964.0 |
| 20260507043003 | 10 | 269 | 3.2 | 4.8 | 0.51 | 1.19 | 0.00 | 88 | 963.9 |
| 20260507042504 | 10 | 287 | 1.6 | 3.2 | 0.51 | 1.19 | 0.00 | 90 | 963.9 |
| 20260507041004 | 10 | 313 | 3.2 | 4.8 | 0.51 | 1.19 | 0.00 | 90 | 964.0 |
| 20260507040004 | 10 | 267 | 1.6 | 3.2 | 0.00 | 0.66 | 0.00 | 90 | 963.9 |
| 20260507035504 | 10 | 309 | 3.2 | 4.8 | 0.00 | 0.66 | 0.51 | 90 | 964.0 |
| 20260507035004 | 10 | 265 | 3.2 | 3.2 | 0.00 | 0.66 | 0.51 | 89 | 964.1 |
| 20260507034004 | 10 | 297 | 1.6 | 3.2 | 0.00 | 0.66 | 0.51 | 89 | 964.1 |
| 20260507033504 | 10 | 279 | 1.6 | 8.0 | 0.00 | 0.66 | 0.51 | 88 | 964.2 |
| 20260507033003 | 10 | 292 | 1.6 | 4.8 | 0.00 | 0.66 | 0.51 | 89 | 964.3 |
| 20260507032504 | 10 | 255 | 1.6 | 3.2 | 0.00 | 0.66 | 0.51 | 88 | 964.1 |
| 20260507032004 | 10 | 271 | 1.6 | 3.2 | 0.00 | 0.66 | 0.51 | 88 | 964.0 |
| 20260507031504 | 10 | 290 | 1.6 | 3.2 | 0.00 | 0.66 | 0.51 | 88 | 964.0 |
| 20260507031003 | 10 | 18 | 3.2 | 4.8 | 0.00 | 0.66 | 0.51 | 84 | 964.2 |
| 20260507030504 | 10 | 342 | 3.2 | 8.0 | 0.00 | 0.66 | 0.51 | 84 | 964.0 |
| 20260507030004 | 10 | 59 | 1.6 | 4.8 | 0.00 | 0.66 | 0.51 | 84 | 963.9 |
| 20260507025504 | 10 | 46 | 1.6 | 1.6 | 0.00 | 0.66 | 0.51 | 85 | 963.9 |
| 20260507024504 | 10 | 295 | 0.0 | 1.6 | 0.00 | 0.66 | 0.51 | 86 | 964.3 |
| 20260507024003 | 10 | 311 | 0.0 | 1.6 | 0.00 | 0.66 | 0.51 | 85 | 964.1 |
| 20260507023503 | 10 | 315 | 0.0 | 1.6 | 0.00 | 0.66 | 0.51 | 86 | 964.1 |
| 20260507023004 | 10 | 52 | 1.6 | 3.2 | 0.00 | 0.66 | 0.51 | 88 | 964.0 |
| 20260507022504 | 10 | 290 | 1.6 | 3.2 | 0.00 | 0.66 | 0.51 | 88 | 963.9 |
| 20260507022004 | 10 | 313 | 1.6 | 3.2 | 0.00 | 0.66 | 0.51 | 89 | 963.8 |
| 20260507021503 | 10 | 301 | 1.6 | 4.8 | 0.00 | 0.66 | 0.51 | 88 | 964.0 |
| 20260507021004 | 10 | 281 | 1.6 | 4.8 | 0.00 | 0.66 | 0.51 | 89 | 963.8 |
| 20260507020504 | 10 | 305 | 3.2 | 4.8 | 0.00 | 0.66 | 0.51 | 86 | 963.6 |
| 20260507020003 | 10 | 291 | 3.2 | 4.8 | 0.00 | 0.66 | 0.51 | 87 | 963.6 |
| 20260507015503 | 10 | 264 | 3.2 | 4.8 | 0.00 | 0.66 | 0.51 | 87 | 963.8 |
| 20260507015004 | 10 | 302 | 3.2 | 4.8 | 0.00 | 0.66 | 0.51 | 87 | 963.9 |
| 20260507014004 | 10 | 276 | 3.2 | 4.8 | 0.00 | 0.66 | 0.51 | 88 | 964.0 |
| 20260507013504 | 10 | 271 | 3.2 | 4.8 | 0.00 | 0.66 | 0.51 | 88 | 963.6 |
| 20260507013004 | 11 | 319 | 3.2 | 9.7 | 0.00 | 0.66 | 0.51 | 88 | 963.4 |
| 20260507012504 | 11 | 327 | 3.2 | 4.8 | 0.00 | 0.66 | 0.51 | 88 | 963.5 |
| 20260507012003 | 11 | 339 | 3.2 | 4.8 | 0.00 | 0.66 | 0.51 | 88 | 963.4 |
| 20260507010504 | 11 | 307 | 1.6 | 3.2 | 0.00 | 0.66 | 0.51 | 92 | 963.4 |
| 20260507010004 | 11 | 317 | 1.6 | 3.2 | 0.00 | 0.66 | 0.51 | 91 | 963.5 |
| 20260507005004 | 11 | 352 | 3.2 | 4.8 | 0.00 | 0.66 | 0.51 | 89 | 963.5 |
| 20260507004503 | 11 | 316 | 1.6 | 3.2 | 0.00 | 0.66 | 0.51 | 89 | 963.4 |
| 20260507003504 | 11 | 355 | 1.6 | 3.2 | 0.00 | 0.66 | 0.51 | 90 | 963.2 |
| 20260507003004 | 11 | 346 | 1.6 | 3.2 | 0.00 | 0.66 | 0.51 | 90 | 963.3 |
| 20260507002504 | 11 | 353 | 3.2 | 4.8 | 0.00 | 0.66 | 0.51 | 89 | 963.7 |
| 20260507002003 | 11 | 349 | 3.2 | 4.8 | 0.00 | 0.66 | 0.51 | 90 | 963.8 |
| 20260507001004 | 11 | 301 | 3.2 | 4.8 | 0.00 | 0.66 | 0.51 | 90 | 963.5 |
| 20260507000504 | 11 | 313 | 3.2 | 4.8 | 0.00 | 0.66 | 0.51 | 89 | 963.5 |
| 20260507000004 | 11 | 325 | 3.2 | 4.8 | 0.00 | 0.66 | 0.51 | 89 | 963.4 |
| 20260506235504 | 11 | 319 | 3.2 | 4.8 | 0.00 | 0.66 | 0.51 | 89 | 963.4 |
| 20260506235005 | 11 | 329 | 3.2 | 4.8 | 0.00 | 0.66 | 0.51 | 90 | 963.3 |
| 20260506234504 | 11 | 290 | 3.2 | 8.0 | 0.00 | 0.66 | 0.51 | 89 | 963.3 |
| 20260506234004 | 12 | 304 | 3.2 | 4.8 | 0.00 | 0.66 | 0.51 | 89 | 963.1 |
| 20260506233504 | 12 | 331 | 3.2 | 4.8 | 0.00 | 0.66 | 0.51 | 89 | 963.2 |
| 20260506232504 | 12 | 341 | 4.8 | 8.0 | 0.00 | 0.66 | 0.51 | 88 | 963.4 |
| 20260506232004 | 12 | 302 | 4.8 | 8.0 | 0.00 | 0.66 | 0.51 | 89 | 963.2 |